This is the latest recevied weather packets stored in our database for station/object N9WHM. If no packets are shown the sender has not sent any weather packets the latest 10 day(s).
| Time | Temp. | Humidity | Pressure | Rain* | Wind** | Luminosity | Snow |
|---|---|---|---|---|---|---|---|
| 1777714657 | 0° C | 81% | 1021 hPa | 0 mm | - | 0 W/m² | - |
| 1777714355 | 0.56° C | 80% | 1020.9 hPa | 0 mm | - | 0 W/m² | - |
| 1777714052 | 0.56° C | 82% | 1021 hPa | 0 mm | - | 0 W/m² | - |
| 1777713750 | 0° C | 80% | 1020.9 hPa | 0 mm | - | 0 W/m² | - |
| 1777713447 | 0.56° C | 81% | 1020.9 hPa | 0 mm | - | 0 W/m² | - |
| 1777713143 | 0° C | 82% | 1020.8 hPa | 0 mm | - | 0 W/m² | - |
| 1777712841 | 0° C | 82% | 1020.8 hPa | 0 mm | - | 0 W/m² | - |
| 1777712537 | 0° C | 81% | 1020.8 hPa | 0 mm | - | 0 W/m² | - |
| 1777712234 | 0.56° C | 80% | 1020.8 hPa | 0 mm | - | 0 W/m² | - |
| 1777711931 | 0.56° C | 80% | 1020.8 hPa | 0 mm | - | 0 W/m² | - |
| 1777711629 | 0.56° C | 79% | 1020.9 hPa | 0 mm | - | 0 W/m² | - |
| 1777711322 | 0.56° C | 79% | 1020.8 hPa | 0 mm | - | 0 W/m² | - |
| 1777711019 | 1.11° C | 79% | 1020.8 hPa | 0 mm | - | 0 W/m² | - |
| 1777710716 | 1.11° C | 79% | 1020.9 hPa | 0 mm | - | 0 W/m² | - |
| 1777710414 | 0.56° C | 79% | 1020.9 hPa | 0 mm | - | 0 W/m² | - |
| 1777710110 | 0.56° C | 78% | 1020.7 hPa | 0 mm | - | 0 W/m² | - |
| 1777709808 | 1.11° C | 77% | 1020.7 hPa | 0 mm | - | 0 W/m² | - |
| 1777709505 | 1.11° C | 77% | 1020.8 hPa | 0 mm | - | 0 W/m² | - |
| 1777709203 | 0.56° C | 77% | 1020.8 hPa | 0 mm | - | 0 W/m² | - |
| 1777708900 | 1.11° C | 77% | 1020.8 hPa | 0 mm | - | 0 W/m² | - |
| 1777708597 | 1.67° C | 76% | 1020.9 hPa | 0 mm | - | 0 W/m² | - |
| 1777708295 | 1.67° C | 75% | 1020.8 hPa | 0 mm | - | 0 W/m² | - |
| 1777707992 | 1.67° C | 73% | 1021 hPa | 0 mm | - | 0 W/m² | - |
| 1777707689 | 1.67° C | 74% | 1021 hPa | 0 mm | - | 0 W/m² | - |
| 1777707386 | 1.67° C | 73% | 1020.8 hPa | 0 mm | - | 0 W/m² | - |
* Rain latest hour (hover to see other rain measurements)
** Current wind speed in m/s (hover to see current wind gust speed)